Voltar ao catálogo

DELTA 1 DEB

AtivoSSO
NORAD 13564·DEBRIS·🇺🇸 United States

Lançado Mar 5, 1978 de Vandenberg Space Force Base

Loading…

Próximas Passagens (próximas 24 horas)

TLE

AtualizadoSource: Space-Track

Época: Sep 13, 2026, 17:53 UTC

1 13564U 78026FB  26256.74568443  .00000337  00000-0  26346-3 0  9991
2 13564  98.8999 191.2511 0203717  76.5079 347.3026 13.89055817233041

Acompanhe DELTA 1 DEB em tempo real com AllMySat

Download on the App Store